Location: New Canada
(47.1017°N, 68.5042°W)
Time: 12:31:22
(UTC+00:00)

N. Korean satellite - Pass Details

Date: 04 December 2022
Orbit: 407 x 441 km, 97.3° (Epoch: 05 February)

Event Time Altitude Azimuth Distance (km) Brightness Sun altitude
Rises 11:09:53 0° 355° (N) 2,525 9.9 -8.8°
Reaches altitude 10° 11:12:43 10° 329° (NNW) 1,636 8.8 -8.4°
Maximum altitude 11:14:35 14° 297° (WNW) 1,397 8.2 -8.1°
Drops below altitude 10° 11:16:27 10° 264° (W) 1,617 8.7 -7.8°
Sets 11:19:14 0° 238° (WSW) 2,474 9.8 -7.3°
